HF3P-11 Weather Reports


time (UTC)temp
C
wind
direction
speed
KPH
gust
KPH
rain 1hr
cm
rain 24hr
cm
rain mn
cm
humidity
%
barometer
mb
20260905211954 12 264 11.3 33.8 0.00 0.46 0.46 99 1009.6
20260905211453 12 253 11.3 33.8 0.00 0.46 0.46 99 1009.6
20260905211002 12 236 9.7 22.5 0.00 0.46 0.46 99 1009.7
20260905210502 12 231 9.7 17.7 0.00 0.46 0.46 99 1009.6
20260905210001 12 249 8.0 17.7 0.00 0.46 0.46 99 1009.6
20260905205453 12 261 8.0 22.5 0.00 0.46 0.46 99 1009.5
20260905205002 12 264 8.0 22.5 0.00 0.46 0.46 99 1009.8
20260905204452 12 259 8.0 24.1 0.00 0.46 0.46 99 1009.9
20260905204002 12 245 8.0 24.1 0.00 0.46 0.46 99 1009.6
20260905203453 12 252 9.7 20.9 0.00 0.46 0.46 99 1009.4
20260905203002 12 248 9.7 20.9 0.00 0.46 0.46 99 1009.4
20260905202453 12 233 9.7 17.7 0.00 0.46 0.46 99 1009.3
20260905202002 12 247 8.0 20.9 0.00 0.46 0.46 99 1009.4
20260905201453 12 262 9.7 20.9 0.00 0.46 0.46 99 1009.3
20260905201001 12 265 9.7 20.9 0.00 0.48 0.46 99 1009.2
20260905200453 12 261 8.0 19.3 0.00 0.48 0.46 99 1009.3
20260905200002 12 257 8.0 17.7 0.00 0.48 0.46 99 1009.4
20260905195453 12 253 6.4 17.7 0.00 0.48 0.46 99 1009.2
20260905195001 12 247 8.0 24.1 0.00 0.48 0.46 99 1009.1
20260905194453 12 248 9.7 24.1 0.00 0.48 0.46 99 1009.3
20260905193953 12 250 9.7 22.5 0.00 0.48 0.46 99 1009.0
20260905193501 12 250 8.0 20.9 0.00 0.48 0.46 99 1009.0
20260905192954 12 260 6.4 17.7 0.00 0.48 0.46 99 1008.9
20260905192502 12 265 6.4 20.9 0.00 0.48 0.46 99 1008.9
20260905191953 12 255 8.0 20.9 0.00 0.48 0.46 99 1008.7
20260905191502 13 255 9.7 20.9 0.00 0.48 0.46 99 1008.7
20260905190953 13 267 11.3 20.9 0.00 0.48 0.46 99 1008.7
20260905190502 13 247 11.3 24.1 0.00 0.48 0.46 99 1008.7
20260905185953 13 229 9.7 24.1 0.00 0.48 0.46 99 1008.4
20260905185502 13 246 8.0 20.9 0.00 0.48 0.46 99 1008.5
20260905184953 12 260 9.7 20.9 0.00 0.48 0.46 99 1008.4
20260905184502 13 250 9.7 20.9 0.00 0.48 0.46 99 1008.3
20260905183953 13 240 6.4 20.9 0.00 0.48 0.46 99 1008.4
20260905183502 13 254 6.4 20.9 0.00 0.48 0.46 99 1008.3
20260905182953 13 252 8.0 24.1 0.00 0.48 0.46 99 1008.4
20260905182502 13 257 8.0 24.1 0.00 0.48 0.46 99 1008.3
20260905181954 13 259 8.0 17.7 0.00 0.48 0.46 99 1008.4
20260905181503 13 250 8.0 17.7 0.00 0.48 0.46 99 1008.4
20260905180954 13 235 9.7 17.7 0.00 0.48 0.46 99 1008.2
20260905180503 13 232 8.0 17.7 0.00 0.48 0.46 99 1008.4
20260905175953 13 254 8.0 17.7 0.00 0.48 0.46 99 1008.1
20260905175502 13 262 6.4 17.7 0.00 0.48 0.46 99 1008.1
20260905174953 13 264 6.4 19.3 0.00 0.48 0.46 99 1007.9
20260905174501 13 255 8.0 19.3 0.00 0.48 0.46 99 1007.9
20260905173953 13 249 8.0 19.3 0.00 0.48 0.46 99 1007.9
20260905173502 13 244 9.7 22.5 0.00 0.48 0.46 99 1007.7
20260905173002 13 251 9.7 30.6 0.03 0.48 0.46 99 1007.8
20260905172453 12 253 11.3 30.6 0.05 0.51 0.46 99 1007.7
20260905172002 13 249 11.3 30.6 0.10 0.51 0.46 99 1008.0
20260905171454 13 258 11.3 30.6 0.15 0.51 0.46 99 1007.7
20260905171003 13 242 9.7 30.6 0.15 0.76 0.46 99 1007.8
20260905170453 13 229 9.7 22.5 0.15 1.12 0.46 99 1007.6
20260905170003 13 228 9.7 22.5 0.15 1.12 0.46 99 1007.4
20260905165502 13 226 11.3 22.5 0.15 1.19 0.46 99 1007.7
20260905164954 13 238 11.3 27.4 0.15 1.27 0.46 99 1007.6
20260905164503 13 252 12.9 32.2 0.15 1.30 0.46 99 1007.6
20260905164003 13 260 12.9 32.2 0.15 1.30 0.46 100 1007.6
20260905163454 13 267 14.5 35.4 0.15 1.30 0.46 97 1007.8
20260905163003 13 271 19.3 43.5 0.13 1.27 0.43 97 1007.6
20260905162503 14 270 16.1 43.5 0.10 1.22 0.38 97 1007.8
20260905161953 14 254 8.0 25.7 0.05 1.19 0.36 97 1007.4
20260905161503 14 238 6.4 14.5 0.00 1.14 0.30 97 1007.3
20260905160954 14 233 6.4 14.5 0.00 1.14 0.30 96 1007.1
20260905160503 14 223 6.4 14.5 0.10 1.14 0.30 96 1007.0
20260905155954 14 218 6.4 14.5 0.10 1.14 0.30 96 1006.8
20260905155502 14 224 6.4 16.1 0.10 1.14 0.30 95 1006.8
20260905154953 14 227 6.4 16.1 0.10 1.14 0.30 95 1006.8
20260905154503 14 235 6.4 14.5 0.10 1.14 0.30 95 1006.8
20260905153954 14 245 8.0 17.7 0.10 1.14 0.30 94 1007.1
20260905153502 14 237 9.7 17.7 0.10 1.14 0.30 94 1006.9
20260905152954 15 240 9.7 20.9 0.10 1.14 0.30 94 1006.8
20260905152502 15 238 11.3 20.9 0.10 1.14 0.30 94 1007.0
20260905151954 15 236 12.9 29.0 0.10 1.14 0.30 94 1007.1
20260905151502 15 255 12.9 29.0 0.10 1.14 0.30 93 1007.1
20260905150953 15 277 9.7 25.7 0.10 1.14 0.30 92 1007.2
20260905150455 16 259 8.0 14.5 0.00 1.04 0.20 91 1007.4
20260905150002 16 256 6.4 14.5 0.00 1.04 0.20 91 1007.0
20260905145454 16 273 6.4 17.7 0.00 1.04 0.20 90 1006.9
20260905145003 16 280 6.4 17.7 0.00 1.04 0.20 90 1006.8
20260905144453 16 283 6.4 17.7 0.03 1.04 0.20 91 1006.9
20260905144003 16 283 4.8 17.7 0.03 1.04 0.20 92 1006.7
20260905143502 16 286 4.8 14.5 0.03 1.04 0.20 94 1007.0
20260905142953 16 293 4.8 14.5 0.03 1.04 0.20 94 1006.8
20260905142502 15 287 4.8 12.9 0.03 1.04 0.20 94 1006.8
20260905141954 15 279 4.8 12.9 0.05 1.04 0.20 94 1006.9
20260905141504 15 264 4.8 16.1 0.05 1.04 0.20 94 1006.9
20260905140953 15 249 9.7 16.1 0.05 1.04 0.20 94 1006.9
20260905140453 15 265 8.0 16.1 0.05 1.04 0.20 94 1006.8
20260905140002 15 304 4.8 22.5 0.05 1.04 0.20 94 1006.7
20260905135453 15 305 8.0 25.7 0.05 1.04 0.20 92 1006.7
20260905135004 15 323 11.3 27.4 0.05 1.04 0.20 91 1007.1
20260905134454 16 342 11.3 29.0 0.03 1.02 0.18 89 1006.8
20260905134003 16 347 11.3 33.8 0.03 1.02 0.18 89 1007.1
20260905133454 16 328 11.3 33.8 0.03 1.02 0.18 90 1007.0
20260905133003 16 294 8.0 24.1 0.03 1.02 0.18 90 1006.8
20260905132454 17 270 4.8 17.7 0.03 1.02 0.18 90 1006.4
20260905131954 17 265 6.4 17.7 0.00 0.99 0.15 89 1006.4
20260905131503 17 254 6.4 12.9 0.00 0.99 0.15 88 1006.6
20260905131003 17 228 4.8 12.9 0.00 0.99 0.15 88 1006.4
20260905130454 17 242 6.4 27.4 0.00 0.99 0.15 88 1006.5
20260905130003 17 254 8.0 27.4 0.00 0.99 0.15 88 1006.6
20260905125454 17 255 6.4 22.5 0.00 0.99 0.15 89 1006.5
20260905125002 17 255 8.0 19.3 0.00 0.99 0.15 91 1006.4
20260905124503 17 252 9.7 19.3 0.00 0.99 0.15 93 1006.4
20260905124003 16 250 8.0 20.9 0.00 0.99 0.15 93 1006.5
20260905123454 16 244 11.3 20.9 0.00 0.99 0.15 93 1006.4
20260905123002 16 227 11.3 22.5 0.03 0.99 0.15 93 1006.7
20260905122454 16 210 9.7 22.5 0.03 0.99 0.15 94 1006.5
20260905122003 16 207 9.7 20.9 0.05 0.99 0.15 95 1006.6
20260905121502 16 226 9.7 20.9 0.10 0.99 0.15 95 1006.6
20260905121003 16 262 11.3 20.9 0.10 0.99 0.15 94 1006.7
20260905120502 15 253 11.3 16.1 0.10 0.99 0.15 94 1006.7
20260905120003 15 238 9.7 17.7 0.10 0.99 0.15 94 1006.8
20260905115454 15 234 9.7 19.3 0.10 0.99 0.15 92 1006.9
20260905115002 15 236 8.0 22.5 0.10 0.99 0.15 92 1006.9
20260905114454 15 253 8.0 22.5 0.13 0.99 0.15 91 1006.9
20260905114003 15 270 9.7 27.4 0.13 0.99 0.15 89 1007.0
20260905113453 15 287 11.3 27.4 0.13 0.99 0.15 88 1006.9
20260905113002 15 291 12.9 37.0 0.10 0.97 0.13 86 1007.1
20260905112504 16 285 14.5 37.0 0.10 0.97 0.13 85 1007.2
20260905111954 17 276 14.5 33.8 0.05 0.94 0.10 83 1007.3
20260905111502 17 265 12.9 32.2 0.03 0.89 0.05 81 1006.9
20260905110955 17 265 12.9 32.2 0.03 0.89 0.05 81 1006.8
20260905110502 17 265 14.5 27.4 0.03 0.89 0.05 81 1006.7
20260905105954 17 246 14.5 33.8 0.03 0.89 0.05 81 1006.7
20260905105503 17 230 16.1 33.8 0.03 0.89 0.05 79 1006.4
20260905105003 18 226 14.5 33.8 0.03 0.89 0.05 77 1006.5
20260905104503 18 233 17.7 35.4 0.00 0.86 0.03 74 1006.4
20260905103954 18 241 14.5 35.4 0.00 0.86 0.03 74 1006.4
20260905103502 18 253 11.3 27.4 0.00 0.86 0.03 74 1006.3
20260905102954 18 252 11.3 27.4 0.00 0.86 0.03 75 1006.2
20260905102454 18 262 12.9 30.6 0.00 0.86 0.03 74 1006.2
20260905101954 18 266 14.5 33.8 0.00 0.86 0.03 74 1006.2
20260905101503 18 257 12.9 33.8 0.00 0.86 0.03 75 1006.5
20260905100954 18 264 11.3 33.8 0.00 0.86 0.03 74 1006.2
20260905100503 18 265 9.7 20.9 0.00 0.86 0.03 76 1006.4
20260905100002 18 258 9.7 27.4 0.00 0.86 0.03 76 1006.4
20260905095502 17 262 12.9 41.8 0.00 0.86 0.03 74 1006.2
20260905095008 18 266 14.5 41.8 0.00 0.86 0.03 73 1006.3
20260905094504 18 271 14.5 38.6 0.00 0.86 0.03 74 1006.3
20260905094003 18 252 14.5 37.0 0.00 0.86 0.03 75 1006.2
20260905093454 17 247 14.5 37.0 0.00 0.86 0.03 77 1006.3
20260905092954 17 262 14.5 35.4 0.00 0.86 0.03 75 1006.2
20260905092454 18 245 12.9 37.0 0.00 0.86 0.03 76 1006.0
20260905091954 17 243 14.5 37.0 0.00 0.86 0.03 79 1006.1
20260905091454 17 263 14.5 37.0 0.00 0.86 0.03 77 1006.2
20260905090954 17 267 11.3 35.4 0.00 0.86 0.03 76 1006.2
20260905090454 17 265 8.0 22.5 0.00 0.86 0.03 81 1006.1
20260905090003 17 267 9.7 22.5 0.00 0.86 0.03 81 1006.2
20260905085503 17 287 12.9 37.0 0.00 0.86 0.03 80 1006.1
20260905084954 17 285 12.9 37.0 0.00 0.86 0.03 79 1005.9
20260905084503 17 262 14.5 33.8 0.00 0.86 0.03 82 1005.8
20260905083954 17 255 14.5 33.8 0.00 0.86 0.03 82 1005.9
20260905083454 17 251 14.5 33.8 0.00 0.86 0.03 82 1005.9
20260905083002 17 255 12.9 33.8 0.00 0.86 0.03 82 1005.8
20260905082454 16 262 12.9 37.0 0.00 0.86 0.03 82 1005.8
20260905082003 17 266 14.5 37.0 0.00 0.86 0.03 82 1005.8
20260905081504 17 269 14.5 32.2 0.00 0.86 0.03 83 1005.5
20260905080954 17 266 12.9 30.6 0.00 0.86 0.03 83 1005.6
20260905080503 17 270 11.3 29.0 0.00 0.86 0.03 86 1005.4
20260905080003 17 267 12.9 29.0 0.00 0.86 0.03 86 1005.5
20260905075503 17 267 12.9 27.4 0.00 0.86 0.03 87 1005.4
20260905075003 16 262 12.9 37.0 0.00 0.86 0.03 88 1005.4
20260905074454 16 262 12.9 37.0 0.00 0.86 0.03 87 1005.3
20260905073954 16 283 14.5 37.0 0.00 0.86 0.03 88 1005.5
20260905073455 16 275 16.1 37.0 0.00 0.86 0.03 87 1005.5
20260905072955 16 271 12.9 32.2 0.00 0.86 0.03 89 1005.5
20260905072503 16 278 11.3 32.2 0.00 0.86 0.03 89 1005.4
20260905072003 16 273 9.7 30.6 0.00 0.86 0.03 90 1005.1
20260905071455 16 271 8.0 24.1 0.00 0.86 0.03 91 1005.2
20260905070954 16 270 8.0 24.1 0.00 0.86 0.03 91 1005.0
20260905070503 16 259 8.0 20.9 0.00 0.86 0.03 90 1004.8
20260905065954 16 247 11.3 25.7 0.00 0.86 0.03 90 1004.8
20260905065503 16 257 11.3 27.4 0.00 0.86 0.03 89 1004.9
20260905065003 16 266 9.7 27.4 0.00 0.86 0.03 89 1004.9
20260905064454 16 277 9.7 33.8 0.00 0.86 0.03 90 1004.9
20260905064003 16 264 12.9 33.8 0.00 0.86 0.03 90 1004.7
20260905063454 16 264 14.5 33.8 0.00 0.86 0.03 92 1004.8
20260905062954 16 262 14.5 33.8 0.00 0.86 0.03 91 1004.6
20260905062503 16 260 14.5 33.8 0.00 0.86 0.03 92 1004.7
20260905061954 16 275 12.9 33.8 0.00 0.86 0.03 92 1004.4
20260905061502 16 262 16.1 37.0 0.00 0.86 0.03 95 1004.5
20260905060955 16 283 14.5 37.0 0.00 0.86 0.03 97 1004.4
20260905060503 15 286 12.9 27.4 0.00 0.86 0.03 100 1004.4
20260905055954 15 268 12.9 33.8 0.00 0.86 0.03 100 1004.4
20260905055503 15 260 12.9 33.8 0.00 0.86 0.03 100 1004.4
20260905055003 16 242 12.9 27.4 0.00 0.86 0.03 100 1004.2
20260905054503 15 249 14.5 27.4 0.00 0.86 0.03 100 1004.1
20260905054003 15 257 12.9 27.4 0.00 0.86 0.03 100 1004.2
20260905053454 15 256 12.9 29.0 0.00 0.86 0.03 99 1004.2
20260905053002 15 247 12.9 29.0 0.00 0.86 0.03 99 1004.0
20260905052454 15 241 11.3 29.0 0.00 0.86 0.03 99 1003.8
20260905052002 15 250 12.9 27.4 0.00 0.86 0.03 99 1003.9
20260905051503 15 250 14.5 27.4 0.00 0.86 0.03 99 1003.9
20260905051004 15 235 11.3 25.7 0.00 0.86 0.03 99 1003.8
20260905050454 15 231 12.9 27.4 0.00 0.86 0.03 99 1003.8
20260905045956 15 237 11.3 27.4 0.00 0.86 0.03 99 1003.8
20260905045503 15 246 12.9 27.4 0.00 0.86 0.03 99 1003.8
20260905044954 15 242 12.9 27.4 0.00 0.86 0.03 99 1003.6
20260905044455 14 241 11.3 24.1 0.00 0.86 0.03 99 1003.6
20260905044003 15 240 9.7 24.1 0.00 0.86 0.03 99 1003.5
20260905043455 15 235 11.3 24.1 0.00 0.86 0.03 99 1003.5
20260905043004 14 248 9.7 24.1 0.00 0.86 0.03 99 1003.2
20260905042455 14 253 9.7 20.9 0.00 0.86 0.03 99 1003.4
20260905042004 15 242 9.7 22.5 0.00 0.86 0.03 99 1003.1
20260905041454 15 253 11.3 22.5 0.00 0.86 0.03 99 1003.3
20260905041002 15 269 11.3 22.5 0.00 0.86 0.03 99 1003.3
20260905040454 15 259 9.7 22.5 0.00 0.86 0.03 99 1002.9
20260905040003 15 247 9.7 22.5 0.00 0.86 0.03 99 1003.0
20260905035454 15 246 9.7 22.5 0.00 0.86 0.03 99 1002.9
20260905035003 15 263 9.7 22.5 0.00 0.86 0.03 99 1002.9
20260905034454 15 259 9.7 24.1 0.00 0.86 0.03 99 1002.9
20260905034003 15 247 9.7 24.1 0.00 0.86 0.03 99 1002.9
20260905033454 15 257 8.0 22.5 0.00 0.86 0.03 99 1002.7
20260905033003 15 245 8.0 22.5 0.00 0.86 0.03 99 1002.8
20260905032455 15 228 8.0 20.9 0.00 0.86 0.03 99 1002.6
20260905032003 15 224 8.0 20.9 0.00 0.86 0.03 99 1002.7
20260905031454 15 222 8.0 20.9 0.00 0.86 0.03 99 1002.5
20260905031003 15 222 8.0 20.9 0.00 0.86 0.03 99 1002.5
20260905030455 15 238 8.0 19.3 0.00 0.86 0.03 100 1002.6
20260905030004 15 262 8.0 19.3 0.00 0.86 0.03 100 1002.4
20260905025455 15 280 8.0 19.3 0.00 0.86 0.03 100 1002.4
20260905024954 15 281 9.7 19.3 0.00 0.86 0.03 100 1002.3
20260905024454 15 276 9.7 17.7 0.00 0.86 0.03 100 1002.3
20260905024004 15 265 8.0 17.7 0.00 0.86 0.03 99 1002.2
20260905023455 15 268 6.4 24.1 0.00 0.86 0.03 99 1002.2
20260905023003 15 278 9.7 25.7 0.00 0.86 0.03 99 1002.1
20260905022455 15 277 11.3 25.7 0.00 0.86 0.03 99 1002.3
20260905022003 15 273 11.3 24.1 0.00 0.86 0.03 99 1002.2
20260905021455 15 284 9.7 30.6 0.00 0.86 0.03 99 1002.2
20260905021003 15 310 8.0 30.6 0.00 0.86 0.03 99 1002.0
20260905020503 15 294 6.4 24.1 0.00 0.86 0.03 99 1002.1
20260905020003 15 269 8.0 24.1 0.00 0.86 0.03 99 1001.9
20260905015455 15 276 8.0 27.4 0.00 0.86 0.03 99 1001.8
20260905015004 15 268 9.7 27.4 0.00 0.86 0.03 99 1001.8
20260905014503 17 269 8.0 27.4 0.00 0.86 0.03 99 1001.7
20260905013955 15 272 9.7 27.4 0.00 0.86 0.03 99 1001.7
20260905013503 15 278 11.3 29.0 0.00 0.86 0.03 99 1001.6
20260905012954 15 276 11.3 29.0 0.00 0.86 0.03 99 1001.7
20260905012502 15 270 9.7 29.0 0.00 0.86 0.03 99 1001.5
20260905011954 16 268 11.3 30.6 0.00 0.86 0.03 99 1001.5
20260905011502 15 261 12.9 30.6 0.00 0.86 0.03 99 1001.6
20260905010955 15 253 9.7 30.6 0.00 0.86 0.03 99 1001.7
20260905010503 16 263 9.7 27.4 0.00 0.86 0.03 99 1001.7
20260905010004 16 271 11.3 27.4 0.00 0.86 0.03 99 1001.4
20260905005455 16 263 11.3 33.8 0.00 0.86 0.03 99 1001.4
20260905005003 16 267 12.9 33.8 0.00 0.86 0.03 99 1001.2
20260905004454 16 269 14.5 37.0 0.00 0.86 0.03 99 1001.2
20260905004003 16 266 16.1 37.0 0.00 0.86 0.03 99 1001.2
20260905003454 16 267 16.1 33.8 0.00 0.86 0.03 99 1001.1
20260905002955 15 266 12.9 33.8 0.00 0.86 0.03 99 1000.8
20260905002503 15 252 14.5 35.4 0.00 0.86 0.03 99 1000.7
20260905002003 15 235 14.5 35.4 0.00 0.86 0.03 99 1000.7
20260905001504 15 245 14.5 27.4 0.00 0.86 0.03 99 1000.8
20260905000955 15 267 16.1 27.4 0.00 0.86 0.03 99 1000.6
20260905000504 15 256 16.1 37.0 0.00 0.86 0.03 99 1000.6
20260904235955 15 236 12.9 37.0 0.00 0.86 0.03 99 1000.7
20260904235454 15 244 12.9 30.6 0.00 0.86 0.03 99 1000.6
20260904235004 15 253 14.5 33.8 0.00 0.86 0.03 99 1000.5
20260904234455 15 248 14.5 37.0 0.00 0.86 0.03 99 1000.4
20260904234003 15 244 14.5 37.0 0.00 0.86 0.03 99 1000.6
20260904233455 15 263 14.5 33.8 0.00 0.86 0.03 99 1000.4
20260904233003 15 270 12.9 33.8 0.00 0.86 0.03 99 1000.3
20260904232455 15 247 12.9 27.4 0.00 0.86 0.03 99 1000.4
20260904232003 15 242 12.9 27.4 0.00 0.86 0.03 99 1000.0
20260904231503 15 257 12.9 27.4 0.00 0.86 0.03 99 1000.0
20260904230955 15 270 12.9 24.1 0.03 0.86 0.03 99 999.9
20260904230503 15 265 11.3 33.8 0.03 0.86 0.03 99 999.9
20260904225955 15 262 12.9 33.8 0.03 0.86 0.03 99 999.9
20260904225503 15 265 11.3 32.2 0.03 0.86 0.03 99 999.8
20260904224955 15 255 9.7 27.4 0.03 0.86 0.03 99 999.9
20260904224503 15 242 11.3 27.4 0.03 0.86 0.03 99 999.8
20260904223955 15 244 12.9 30.6 0.03 0.86 0.03 99 999.8
20260904223503 15 236 12.9 30.6 0.03 0.86 0.03 99 1000.0
20260904223005 15 233 14.5 32.2 0.03 0.86 0.03 99 999.7
20260904222504 15 260 16.1 32.2 0.03 0.86 0.03 99 999.6
20260904222004 15 268 16.1 30.6 0.03 0.86 0.03 99 999.6
20260904221454 15 244 14.5 33.8 0.03 0.86 0.03 99 999.8
20260904221004 15 230 12.9 33.8 0.00 0.84 0.00 99 999.5
20260904220455 15 230 12.9 30.6 0.00 0.84 0.00 99 999.4
20260904215957 15 240 14.5 33.8 0.00 0.84 0.00 99 999.5
20260904215455 15 258 16.1 35.4 0.00 0.84 0.84 99 999.3
20260904215006 15 254 16.1 35.4 0.00 0.84 0.84 99 999.0
20260904214455 15 241 14.5 33.8 0.00 0.84 0.84 99 999.0
20260904214004 15 233 14.5 33.8 0.00 0.84 0.84 99 998.9
20260904213455 15 232 14.5 32.2 0.00 0.84 0.84 99 998.9
20260904213004 15 242 12.9 30.6 0.00 0.84 0.84 99 998.8
20260904212455 15 256 12.9 27.4 0.00 0.84 0.84 99 998.9